Regional Weather Roundup
Issued by NWS Wilmington, NC

Home | Current Version | Previous Version | Text Only | Print | Product List | Glossary On
Versions: 1 2 3 4 5 6 7 8 9 10 11 12 13 14 15 16 17 18 19 20 21 22 23 24 25 26 27 28 29 30 31 32 33 34 35 36 37 38 39 40 41 42 43 44 45 46 47 48 49 50
118
ASUS42 KILM 100913
RWRILM
RWRILM
REGIONAL HOURLY WEATHER ROUNDUP
NATIONAL WEATHER SERVICE WILMINGTON NC
400 AM EST WED FEB 10 2016

NOTE: "FAIR" INDICATES FEW OR NO CLOUDS BELOW 12,000 FEET WITH NO
SIGNIFICANT WEATHER AND/OR OBSTRUCTIONS TO VISIBILITY.

...............WFO WILMINGTON COUNTY WARNING AREA...............

......COASTAL NC AND SC COUNTIES......

CITY           SKY/WX    TMP DP  RH WIND       PRES   REMARKS
WILMINGTON     CLOUDY    36  16  44 NW9       29.88R WCI  29
N MYRTLE BEACH PTCLDY    33  23  66 W8        29.91R WCI  26
MYRTLE BEACH   CLEAR     34  18  51 W12G17    29.95R WCI  25

......INLAND NC AND SC COUNTIES.......

CITY           SKY/WX    TMP DP  RH WIND       PRES   REMARKS
LUMBERTON      CLEAR     28  19  69 SW6       29.90R WCI  22
ELIZABETHTOWN  PTCLDY    32  15  49 W5        29.89R WCI  27
WHITEVILLE     CLOUDY    34  17  49 CALM      29.89R
FLORENCE       PTCLDY    32  23  69 SW10      29.92R WCI  24
DARLINGTON     CLEAR     28  14  54 W6        29.92R WCI  22
KINGSTREE      FAIR      32  19  59 SW9       29.95R WCI  24
HARTSVILLE     MOCLDY    28  19  69 CALM      29.91R
BENNETTSVILLE  FAIR      32  19  59 CALM      29.91R
CONWAY         FAIR      32  23  69 SW5       29.94R WCI  27
GEORGETOWN     FAIR      32  21  64 W7        29.96R WCI  26
MARION         CLOUDY    34  25  69 W9        29.92R WCI  26

....................REST OF NORTH CAROLINA......................

.........EASTERN NC.........

CITY           SKY/WX    TMP DP  RH WIND       PRES   REMARKS
CAPE HATTERAS  CLOUDY    39  21  48 W16G31    29.77F WCI  30
JACKSONVILLE   PTCLDY    30  10  43 W7        29.87S WCI  23
MOREHEAD CITY  CLOUDY    35  16  45 W18       29.84R WCI  24
KENANSVILLE    CLEAR     29  15  55 CALM      29.88S
NEW BERN       PTCLDY    31  15  52 W9G18     29.85S WCI  23
ELIZABETH CITY CLEAR     30  17  58 W12       29.78S WCI  20

.........CENTRAL NC.........

CITY           SKY/WX    TMP DP  RH WIND       PRES   REMARKS
RALEIGH DURHAM CLEAR     25  13  60 W5        29.84S WCI  19
ROCKY MOUNT    PTCLDY    28  15  58 W7        29.83S WCI  21
ROANOKE RAPIDS NOT AVBL
FAYETTEVILLE   CLEAR     28  14  55 W7        29.87S WCI  21
HOFFMAN        PTCLDY    23  16  74 SW5       29.87R WCI  17

.........WESTERN NC.........

CITY           SKY/WX    TMP DP  RH WIND       PRES   REMARKS
CHARLOTTE      CLEAR     24  11  57 NW5       29.87S WCI  18
GREENSBORO     CLEAR     23  11  60 W7        29.81S WCI  15
HICKORY        NOT AVBL
BOONE          NOT AVBL
ASHEVILLE      NOT AVBL

.....................REST OF SOUTH CAROLINA.....................

.........EASTERN SC.........

CITY           SKY/WX    TMP DP  RH WIND       PRES   REMARKS
CHARLESTON     CLEAR     33  16  49 W14G22    29.99R WCI  23
BEAUFORT MCAS  CLEAR     33  19  56 W10       30.03R WCI  25
HILTON HEAD    CLEAR     34  23  64 SW7       30.04F WCI  28

.........CENTRAL SC.........

CITY           SKY/WX    TMP DP  RH WIND       PRES   REMARKS
COLUMBIA       CLEAR     29  14  53 W9        29.96R WCI  20
ORANGEBURG     CLEAR     30  16  56 W10       29.97R WCI  21
SUMTER SHAW    CLEAR     28  18  65 W12       29.92R WCI  18

.........WESTERN SC.........

CITY           SKY/WX    TMP DP  RH WIND       PRES   REMARKS
GREENVILLE     NOT AVBL
ROCK HILL      CLEAR     21  14  74 SW5       29.89R WCI  15
ANDERSON       CLEAR     25  12  58 W13       29.93R WCI  14
CLEMSON        NOT AVBL
GREENWOOD      CLEAR     25  11  55 W10       29.95R WCI  15


...................COASTAL AND OFFSHORE REPORTS..................

................LOCAL PIERS AND NC RESERVE................


STATION/POSITION TIME  SKY/WX   TEMP    WIND        PRES    VSBY
                                AIR SEA DIR/SP/G
                 (UTC)          (F)     (DEG/KT/KT) (MB)    (MI)
JOHNY MRCER PIER 0800            37 52  290/ 10/ 18 1010.3R
NC RESRV MASNBRO NOT AVBL
OCEAN CREST PIER NOT AVBL
SPRINGMAID  PIER 0800            34 49  230/ 12/ 15 1012.5F


................COASTAL AND OFFSHORE BUOYS................


STATION/POSITION TIME  SKY/WX   TEMP    WIND        PRES    VSBY
                                AIR SEA DIR/SP/G
                 (UTC)          (F)     (DEG/KT/KT) (MB)    (MI)
DIMNDSHOAL 41025 0850            43 73  290/ 25/ 33 1007.5F
WVE H/P(F/S)=  8/15 SWL H/P/D(F/S/D)=  5/ 90/15

CAPE LOOKOUT     NOT AVBL
ONSLOW BAY 41036 NOT AVBL
ONSLOW BAY 41064 0808            42 60              1010.1R
ONSLOW BAY 41159 0825               60                N/A
WVE H/P(F/S)=  8/ 7 SWL H/P/D(F/S/D)=  3/100/13

5SE WRITBC 41038 0808            39 51  300/ 17/ 23 1011.7R
MASNBO INL 41110 0806               51                N/A
WVE H/P(F/S)=  3/14 SWL H/P/D(F/S/D)=  2/110/14

WILM HARBR 41108 0826               53                N/A
WVE H/P(F/S)=  7/ 7 SWL H/P/D(F/S/D)=  2/180/11

27SE WRITB 41037 0808            40 60  360/ 19/ 27 1009.3S
FRYING PAN 41013 0900            42 57  280/ 23/ 31 1012.0R
SUNST NRSH 41024 NOT AVBL
CAPRS NRSH 41029 0808            37     280/ 21/ 33 1014.1F
EDISTO     41004 0850            42 63  270/ 27/ 33 1013.7R
WVE H/P(F/S)=  9/ 7 SWL H/P/D(F/S/D)=  2/11



..........OFFSHORE BUOYS BEYOND 100 NM OFFSHORE...........
.....IN A TRIANGLE---HAT TO BERMUDA TO BAHAMAS TO HAT.....


STATION/POSITION TIME  SKY/WX   TEMP    WIND        PRES    VSBY
                                AIR SEA DIR/SP/G
                 (UTC)          (F)     (DEG/KT/KT) (MB)    (MI)
150E HAT   41001 0900            54 71  270/ 25/ 35 1006.1F
W BERMUDA  41048 0850            65 69  230/ 27/ 35 1010.2F
WVE H/P(F/S)= 20/12 SWL H/P/D(F/S/D)= 16/270/12

ATLANTIC S 41049 0850            76 76  190/ 17/ 19 1018.8F
WVE H/P(F/S)=  8/ 9 SWL H/P/D(F/S/D)=  7/300/ 9

E BAHAMAS  41046 0850            78 79  190/  8/ 12 1018.0R
WVE H/P(F/S)=  9/10 SWL H/P/D(F/S/D)=  8/320/10

NE BAHAMAS 41047 0850            71 74  260/ 21/ 29 1016.0S
WVE H/P(F/S)= 11/11 SWL H/P/D(F/S/D)=  8/290/11

120E CANVRL41010 0820            59 72              1016.0R

END




USA.gov is the U.S. government's official web portal to all federal, state and local government web resources and services.